FW8892 Weather Reports


time (UTC)temp
C
wind
direction
speed
KPH
gust
KPH
rain 1hr
cm
rain 24hr
cm
rain mn
cm
humidity
%
barometer
mb
20260906004031 30 0 0.0 1.6 0.00 0.00 0.00 71 1011.3
20260906003530 31 0 0.0 0.0 0.00 0.00 0.00 69 1011.3
20260906003047 31 0 0.0 1.6 0.00 0.00 0.00 69 1011.5
20260906002527 31 0 0.0 1.6 0.00 0.00 0.00 68 1011.5
20260906002029 31 0 0.0 1.6 0.00 0.00 0.00 67 1011.5
20260906001559 32 0 0.0 1.6 0.00 0.00 0.00 65 1011.3
20260906001030 32 0 0.0 1.6 0.00 0.00 0.00 65 1011.4
20260906000529 32 0 0.0 1.6 0.00 0.00 0.00 63 1011.3
20260906000059 32 0 0.0 1.6 0.00 0.00 0.00 62 1011.4
20260905235529 33 0 0.0 1.6 0.00 0.00 0.00 61 1011.3
20260905235030 33 0 0.0 1.6 0.00 0.00 0.00 60 1011.4
20260905234550 33 0 0.0 1.6 0.00 0.00 0.00 59 1011.3
20260905234029 33 0 0.0 1.6 0.00 0.00 0.00 59 1011.4
20260905233532 33 235 0.0 1.6 0.00 0.00 0.00 58 1011.4
20260905233109 34 0 0.0 3.2 0.00 0.00 0.00 57 1011.3
20260905232528 34 0 0.0 4.8 0.00 0.00 0.00 56 1011.4
20260905232029 34 0 0.0 6.4 0.00 0.00 0.00 55 1011.2
20260905231559 35 223 0.0 6.4 0.00 0.00 0.00 55 1011.2
20260905231034 35 247 0.0 6.4 0.00 0.00 0.00 55 1011.3
20260905230529 35 238 1.6 6.4 0.00 0.00 0.00 54 1011.3
20260905230057 35 233 1.6 6.4 0.00 0.00 0.00 54 1011.3
20260905225528 35 239 0.0 6.4 0.00 0.00 0.00 54 1011.3
20260905225029 35 248 1.6 6.4 0.00 0.00 0.00 53 1011.3
20260905224548 35 242 0.0 6.4 0.00 0.00 0.00 54 1011.2
20260905224028 35 194 1.6 6.4 0.00 0.00 0.00 53 1011.3
20260905223533 35 289 0.0 6.4 0.00 0.00 0.00 53 1011.2
20260905223101 35 252 1.6 6.4 0.00 0.00 0.00 52 1011.2
20260905222529 36 227 1.6 6.4 0.00 0.00 0.00 53 1011.2
20260905222029 36 258 1.6 6.4 0.00 0.00 0.00 52 1011.3
20260905221557 36 218 1.6 4.8 0.00 0.00 0.00 52 1011.3
20260905221029 36 296 0.0 4.8 0.00 0.00 0.00 52 1011.3
20260905220529 36 219 0.0 4.8 0.00 0.00 0.00 52 1011.3
20260905220058 36 263 1.6 4.8 0.00 0.00 0.00 51 1011.3
20260905215529 36 232 0.0 6.4 0.00 0.00 0.00 51 1011.3
20260905215028 36 282 0.0 6.4 0.00 0.00 0.00 50 1011.3
20260905214553 36 243 1.6 8.0 0.00 0.00 0.00 49 1011.3
20260905214030 37 0 1.6 8.0 0.00 0.00 0.00 50 1011.3
20260905213528 37 235 3.2 8.0 0.00 0.00 0.00 50 1011.3
20260905213059 37 0 1.6 6.4 0.00 0.00 0.00 48 1011.4
20260905212529 37 13 3.2 6.4 0.00 0.00 0.00 48 1011.4
20260905212032 37 344 1.6 3.2 0.00 0.00 0.00 48 1011.4
20260905211553 37 297 0.0 4.8 0.00 0.00 0.00 47 1011.4
20260905211028 37 0 0.0 6.4 0.00 0.00 0.00 46 1011.4
20260905210528 37 264 1.6 6.4 0.00 0.00 0.00 49 1011.4
20260905210055 37 22 0.0 4.8 0.00 0.00 0.00 46 1011.6
20260905205556 37 62 0.0 4.8 0.00 0.00 0.00 48 1011.5
20260905205030 37 295 1.6 6.4 0.00 0.00 0.00 46 1011.7
20260905204955 37 278 1.6 6.4 0.00 0.00 0.00 48 1011.7
20260905204029 37 190 0.0 4.8 0.00 0.00 0.00 47 1011.6
20260905203529 37 319 1.6 4.8 0.00 0.00 0.00 47 1011.7
20260905203053 37 281 3.2 8.0 0.00 0.00 0.00 49 1011.9
20260905202528 37 261 1.6 8.0 0.00 0.00 0.00 46 1011.9
20260905202032 38 319 1.6 9.7 0.00 0.00 0.00 48 1012.0
20260905201559 38 287 1.6 9.7 0.00 0.00 0.00 48 1012.2
20260905201028 38 350 4.8 9.7 0.00 0.00 0.00 48 1012.3
20260905200532 38 194 1.6 8.0 0.00 0.00 0.00 48 1012.3
20260905195530 38 310 0.0 8.0 0.00 0.00 0.00 51 1012.4
20260905195029 37 0 3.2 8.0 0.00 0.00 0.00 48 1012.5
20260905194556 37 209 3.2 8.0 0.00 0.00 0.00 48 1012.5
20260905194029 37 198 1.6 8.0 0.00 0.00 0.00 52 1012.8
20260905193532 36 286 1.6 6.4 0.00 0.00 0.00 53 1012.9
20260905193050 36 290 1.6 6.4 0.00 0.00 0.00 55 1012.9
20260905192531 36 234 1.6 6.4 0.00 0.00 0.00 54 1012.9
20260905192031 35 338 1.6 4.8 0.00 0.00 0.00 53 1012.9
20260905191549 35 339 1.6 8.0 0.00 0.00 0.00 54 1013.0
20260905191031 35 259 1.6 8.0 0.00 0.00 0.00 53 1013.0
20260905190529 36 13 4.8 12.9 0.00 0.00 0.00 52 1012.9
20260905190059 36 59 6.4 12.9 0.00 0.00 0.00 51 1013.0
20260905185530 36 82 3.2 8.0 0.00 0.00 0.00 54 1013.3
20260905185029 36 67 3.2 8.0 0.00 0.00 0.00 51 1013.3
20260905184553 36 0 1.6 6.4 0.00 0.00 0.00 50 1013.4
20260905184029 36 107 1.6 9.7 0.00 0.00 0.00 51 1013.4
20260905183532 36 86 1.6 9.7 0.00 0.00 0.00 50 1013.6
20260905183106 36 53 3.2 9.7 0.00 0.00 0.00 51 1013.6
20260905182529 36 276 1.6 9.7 0.00 0.00 0.00 52 1013.7
20260905182030 36 19 4.8 9.7 0.00 0.00 0.00 50 1013.8
20260905181558 37 355 1.6 8.0 0.00 0.00 0.00 51 1013.8
20260905181031 37 55 3.2 8.0 0.00 0.00 0.00 51 1013.9
20260905180529 37 325 3.2 6.4 0.00 0.00 0.00 52 1014.0
20260905180057 37 355 3.2 6.4 0.00 0.00 0.00 51 1013.9
20260905175530 37 351 3.2 11.3 0.00 0.00 0.00 50 1014.0
20260905175028 37 240 1.6 11.3 0.00 0.00 0.00 51 1014.0
20260905174549 37 190 1.6 8.0 0.00 0.00 0.00 54 1014.1
20260905174035 37 34 1.6 8.0 0.00 0.00 0.00 52 1014.1
20260905173528 36 165 1.6 6.4 0.00 0.00 0.00 52 1014.2
20260905173059 36 299 1.6 6.4 0.00 0.00 0.00 52 1014.3
20260905172530 36 0 1.6 12.9 0.00 0.00 0.00 53 1014.3
20260905172030 36 15 1.6 12.9 0.00 0.00 0.00 52 1014.3
20260905171559 36 349 3.2 6.4 0.00 0.00 0.00 52 1014.2
20260905171029 36 0 1.6 6.4 0.00 0.00 0.00 54 1014.4
20260905170528 36 312 1.6 6.4 0.00 0.00 0.00 56 1014.4
20260905170100 36 45 1.6 6.4 0.00 0.00 0.00 56 1014.5
20260905165528 36 22 1.6 4.8 0.00 0.00 0.00 54 1014.5
20260905165030 36 269 1.6 4.8 0.00 0.00 0.00 58 1014.5
20260905164549 36 0 1.6 8.0 0.00 0.00 0.00 57 1014.5
20260905164029 36 308 1.6 8.0 0.00 0.00 0.00 59 1014.6
20260905163528 35 219 1.6 6.4 0.00 0.00 0.00 58 1014.7
20260905163237 35 249 0.0 9.7 0.00 0.00 0.00 59 1014.7
20260905162529 35 5 3.2 9.7 0.00 0.00 0.00 58 1014.8
20260905162030 35 355 4.8 11.3 0.00 0.00 0.00 57 1014.9
20260905161600 35 343 3.2 11.3 0.00 0.00 0.00 58 1014.9
20260905161030 35 5 1.6 8.0 0.00 0.00 0.00 61 1014.9
20260905160529 35 159 1.6 8.0 0.00 0.00 0.00 59 1014.9
20260905160058 35 82 1.6 8.0 0.00 0.00 0.00 60 1014.9
20260905155532 35 0 1.6 8.0 0.00 0.00 0.00 61 1014.9
20260905155029 35 325 1.6 4.8 0.00 0.00 0.00 62 1014.9
20260905154550 35 290 1.6 6.4 0.00 0.00 0.00 65 1015.0
20260905154030 34 0 1.6 6.4 0.00 0.00 0.00 62 1015.1
20260905153528 33 313 1.6 6.4 0.00 0.00 0.00 63 1015.1
20260905153110 33 346 3.2 8.0 0.00 0.00 0.00 63 1015.1
20260905152528 33 5 1.6 8.0 0.00 0.00 0.00 65 1015.2
20260905152033 33 279 4.8 8.0 0.00 0.00 0.00 63 1015.2
20260905151549 33 49 1.6 6.4 0.00 0.00 0.00 65 1015.1
20260905151030 33 305 1.6 6.4 0.00 0.00 0.00 68 1015.3
20260905150528 32 313 1.6 6.4 0.00 0.00 0.00 67 1015.3
20260905150058 32 318 1.6 6.4 0.00 0.00 0.00 69 1015.3
20260905145530 32 317 1.6 8.0 0.00 0.00 0.00 70 1015.3
20260905145030 32 13 1.6 8.0 0.00 0.00 0.00 71 1015.3
20260905144555 31 340 1.6 6.4 0.00 0.00 0.00 72 1015.4
20260905144029 31 0 0.0 6.4 0.00 0.00 0.00 74 1015.3
20260905143529 31 346 1.6 6.4 0.00 0.00 0.00 72 1015.3
20260905143058 31 360 1.6 4.8 0.00 0.00 0.00 74 1015.3
20260905142528 30 348 1.6 4.8 0.00 0.00 0.00 76 1015.4
20260905142029 30 0 0.0 0.0 0.00 0.00 0.00 78 1015.4
20260905141602 29 0 0.0 0.0 0.00 0.00 0.00 80 1015.4
20260905141029 28 0 0.0 0.0 0.00 0.00 0.00 84 1015.4
20260905140530 27 0 0.0 0.0 0.00 0.00 0.00 86 1015.4
20260905140106 27 0 0.0 0.0 0.00 0.00 0.00 87 1015.4
20260905135529 26 0 0.0 0.0 0.00 0.00 0.00 89 1015.4
20260905135030 26 0 0.0 0.0 0.00 0.00 0.00 91 1015.4
20260905134552 25 0 0.0 0.0 0.00 0.00 0.00 92 1015.5
20260905134030 25 0 0.0 0.0 0.00 0.00 0.00 92 1015.5
20260905133529 25 0 0.0 0.0 0.00 0.00 0.00 92 1015.4
20260905133049 25 0 0.0 0.0 0.00 0.00 0.00 93 1015.6
20260905132529 24 0 0.0 4.8 0.00 0.00 0.00 93 1015.5
20260905132029 24 0 0.0 4.8 0.00 0.00 0.00 94 1015.5
20260905131614 24 167 0.0 3.2 0.00 0.00 0.00 94 1015.4
20260905131029 23 139 0.0 3.2 0.00 0.00 0.00 95 1015.4
20260905130530 23 139 0.0 3.2 0.00 0.00 0.00 95 1015.4
20260905130055 23 173 1.6 3.2 0.00 0.00 0.00 96 1015.4
20260905125531 23 173 0.0 3.2 0.00 0.00 0.00 96 1015.3
20260905125029 23 173 0.0 3.2 0.00 0.00 0.00 96 1015.3
20260905124557 23 0 0.0 0.0 0.00 0.00 0.00 97 1015.4
20260905124034 23 0 0.0 0.0 0.00 0.00 0.00 97 1015.4
20260905123530 22 0 0.0 0.0 0.00 0.00 0.00 97 1015.3
20260905123053 22 0 0.0 0.0 0.00 0.00 0.00 97 1015.3
20260905122532 22 0 0.0 0.0 0.00 0.00 0.00 97 1015.2
20260905122029 22 0 0.0 0.0 0.00 0.00 0.00 97 1015.2
20260905121557 22 0 0.0 0.0 0.00 0.00 0.00 97 1015.2
20260905121029 22 0 0.0 0.0 0.00 0.00 0.00 97 1015.2
20260905120530 22 0 0.0 0.0 0.00 0.00 0.00 97 1015.2
20260905120059 22 0 0.0 0.0 0.00 0.00 0.00 97 1015.1
20260905115529 22 0 0.0 0.0 0.00 0.00 0.00 97 1015.1
20260905115031 22 0 0.0 0.0 0.00 0.00 0.00 97 1015.0
20260905114554 22 0 0.0 0.0 0.00 0.00 0.00 96 1015.0
20260905114032 22 0 0.0 0.0 0.00 0.00 0.00 96 1014.9
20260905113530 22 0 0.0 0.0 0.00 0.00 0.00 96 1014.8
20260905113049 22 0 0.0 0.0 0.00 0.00 0.00 96 1014.6
20260905112531 22 0 0.0 0.0 0.00 0.00 0.00 96 1014.6
20260905112031 22 0 0.0 0.0 0.00 0.00 0.00 96 1014.6
20260905111600 22 0 0.0 0.0 0.00 0.00 0.00 96 1014.5
20260905111033 22 0 0.0 0.0 0.00 0.00 0.00 96 1014.4
20260905110529 22 0 0.0 0.0 0.00 0.00 0.00 96 1014.4
20260905110059 22 0 0.0 0.0 0.00 0.00 0.00 96 1014.4
20260905105529 22 0 0.0 0.0 0.00 0.00 0.00 96 1014.3
20260905105028 22 0 0.0 0.0 0.00 0.00 0.00 96 1014.2
20260905104555 22 0 0.0 0.0 0.00 0.00 0.00 96 1014.3
20260905104029 22 0 0.0 0.0 0.00 0.00 0.00 95 1014.3
20260905103533 22 0 0.0 0.0 0.00 0.00 0.00 95 1014.2
20260905103058 22 0 0.0 0.0 0.00 0.00 0.00 95 1014.2
20260905102529 22 0 0.0 0.0 0.00 0.00 0.00 95 1014.1
20260905102028 22 0 0.0 0.0 0.00 0.00 0.00 95 1014.2
20260905101553 22 0 0.0 0.0 0.00 0.00 0.00 95 1014.1
20260905101027 22 0 0.0 0.0 0.00 0.00 0.00 95 1014.1
20260905100529 22 0 0.0 0.0 0.00 0.00 0.00 95 1014.1
20260905100108 22 0 0.0 0.0 0.00 0.00 0.00 95 1014.1
20260905095530 22 0 0.0 0.0 0.00 0.00 0.00 95 1014.1
20260905095028 22 0 0.0 0.0 0.00 0.00 0.00 94 1013.9
20260905094546 22 0 0.0 0.0 0.00 0.00 0.00 94 1014.0
20260905094028 22 0 0.0 0.0 0.00 0.00 0.00 94 1013.9
20260905093529 22 0 0.0 0.0 0.00 0.00 0.00 95 1013.9
20260905093046 22 0 0.0 0.0 0.00 0.00 0.00 95 1013.9
20260905092528 22 0 0.0 0.0 0.00 0.00 0.00 95 1013.8
20260905092029 22 0 0.0 0.0 0.00 0.00 0.00 94 1013.8
20260905091557 22 0 0.0 0.0 0.00 0.00 0.00 94 1013.7
20260905091028 22 0 0.0 0.0 0.00 0.00 0.00 94 1013.8
20260905090525 22 0 0.0 0.0 0.00 0.00 0.00 94 1013.9
20260905090106 22 0 0.0 0.0 0.00 0.00 0.00 94 1013.9
20260905085529 22 0 0.0 0.0 0.00 0.00 0.00 94 1013.8
20260905085028 22 0 0.0 0.0 0.00 0.00 0.00 94 1013.9
20260905084548 22 0 0.0 0.0 0.00 0.00 0.00 94 1014.0
20260905084035 22 0 0.0 0.0 0.00 0.00 0.00 94 1013.9
20260905083529 22 0 0.0 0.0 0.00 0.00 0.00 93 1013.9
20260905083057 22 0 0.0 0.0 0.00 0.00 0.00 93 1014.0
20260905082529 22 0 0.0 0.0 0.00 0.00 0.00 93 1013.9
20260905082030 22 0 0.0 0.0 0.00 0.00 0.00 93 1013.9
20260905081600 22 0 0.0 0.0 0.00 0.00 0.00 93 1014.0
20260905081028 22 0 0.0 0.0 0.00 0.00 0.00 93 1014.0
20260905080529 22 0 0.0 0.0 0.00 0.00 0.00 93 1013.9
20260905080054 22 0 0.0 0.0 0.00 0.00 0.00 92 1014.0
20260905075528 22 0 0.0 0.0 0.00 0.00 0.00 92 1013.9
20260905075028 22 0 0.0 0.0 0.00 0.00 0.00 92 1014.0
20260905074557 22 0 0.0 0.0 0.00 0.00 0.00 92 1014.0
20260905074029 22 0 0.0 0.0 0.00 0.00 0.00 92 1014.0
20260905073531 22 0 0.0 0.0 0.00 0.00 0.00 91 1014.1
20260905073048 22 0 0.0 0.0 0.00 0.00 0.00 91 1014.0
20260905072529 23 0 0.0 0.0 0.00 0.00 0.00 91 1014.2
20260905072029 23 0 0.0 0.0 0.00 0.00 0.00 91 1014.2
20260905071553 23 0 0.0 0.0 0.00 0.00 0.00 91 1014.2
20260905071029 23 0 0.0 0.0 0.00 0.00 0.00 91 1014.2
20260905070529 23 0 0.0 0.0 0.00 0.00 0.00 91 1014.2
20260905070059 23 0 0.0 0.0 0.00 0.00 0.00 91 1014.2
20260905065526 23 0 0.0 0.0 0.00 0.00 0.00 90 1014.3
20260905065034 23 0 0.0 0.0 0.00 0.00 0.00 90 1014.3
20260905064548 23 0 0.0 0.0 0.00 0.00 0.00 90 1014.2
20260905064035 23 0 0.0 0.0 0.00 0.00 0.00 89 1014.2
20260905063528 23 0 0.0 0.0 0.00 0.00 0.00 89 1014.4
20260905063055 23 0 0.0 0.0 0.00 0.00 0.00 89 1014.2
20260905062529 23 0 0.0 0.0 0.00 0.00 0.00 89 1014.4
20260905062030 23 0 0.0 0.0 0.00 0.00 0.00 89 1014.4
20260905061553 23 0 0.0 1.6 0.00 0.00 0.00 88 1014.4
20260905061029 23 0 0.0 1.6 0.00 0.00 0.00 88 1014.3
20260905060526 23 0 0.0 0.0 0.00 0.00 0.00 87 1014.4
20260905060052 23 0 0.0 0.0 0.00 0.00 0.00 88 1014.4
20260905055528 23 0 0.0 1.6 0.00 0.00 0.00 88 1014.4
20260905055029 23 0 0.0 1.6 0.00 0.00 0.00 88 1014.3
20260905054549 23 0 0.0 1.6 0.00 0.00 0.00 87 1014.2
20260905054029 23 0 0.0 0.0 0.00 0.00 0.00 87 1014.3
20260905053530 24 0 0.0 0.0 0.00 0.00 0.00 86 1014.2
20260905053056 24 0 0.0 0.0 0.00 0.00 0.00 86 1014.1
20260905052528 24 0 0.0 0.0 0.00 0.00 0.00 85 1014.2
20260905052028 24 0 0.0 0.0 0.00 0.00 0.00 85 1014.2
20260905051555 24 0 0.0 0.0 0.00 0.00 0.00 84 1014.3
20260905051028 25 0 0.0 1.6 0.00 0.00 0.00 84 1014.2
20260905050528 25 0 0.0 1.6 0.00 0.00 0.00 84 1014.1
20260905050057 25 0 0.0 0.0 0.00 0.00 0.00 84 1014.1
20260905045531 25 0 0.0 0.0 0.00 0.00 0.00 84 1014.2
20260905045029 25 0 0.0 1.6 0.00 0.00 0.00 84 1014.3
20260905044548 25 0 0.0 1.6 0.00 0.00 0.00 84 1014.5
20260905044028 25 0 0.0 1.6 0.00 0.00 0.00 84 1014.4
20260905043529 25 0 0.0 1.6 0.00 0.00 0.00 83 1014.5
20260905043054 25 0 0.0 1.6 0.00 0.00 0.00 83 1014.4
20260905042528 25 0 0.0 1.6 0.00 0.00 0.00 83 1014.5
20260905042029 25 0 0.0 1.6 0.00 0.00 0.00 83 1014.6
20260905041555 25 0 0.0 1.6 0.00 0.00 0.00 83 1014.5
20260905041029 25 0 0.0 3.2 0.00 0.00 0.00 84 1014.6
20260905040528 25 0 0.0 3.2 0.00 0.00 0.00 85 1014.5
20260905040054 25 0 0.0 0.0 0.00 0.00 0.00 86 1014.7
20260905035526 25 0 0.0 0.0 0.00 0.00 0.00 86 1014.7
20260905035029 25 0 0.0 0.0 0.00 0.00 0.00 86 1014.8
20260905034549 25 0 0.0 0.0 0.00 0.00 0.00 86 1014.8
20260905034029 25 0 0.0 0.0 0.00 0.00 0.00 86 1015.0
20260905033528 25 0 0.0 0.0 0.00 0.00 0.00 86 1015.0
20260905033046 25 0 0.0 0.0 0.00 0.00 0.00 86 1015.1
20260905032529 25 0 0.0 0.0 0.00 0.00 0.00 87 1015.0
20260905032028 25 0 0.0 0.0 0.00 0.00 0.00 87 1015.1
20260905031602 25 0 0.0 1.6 0.00 0.00 0.00 87 1015.1
20260905031029 25 0 0.0 1.6 0.00 0.00 0.00 87 1015.1
20260905030528 26 0 0.0 0.0 0.00 0.00 0.00 86 1015.0
20260905030049 26 0 0.0 0.0 0.00 0.00 0.00 86 1015.1
20260905025528 26 0 0.0 0.0 0.00 0.00 0.00 86 1015.0
20260905025028 26 0 0.0 3.2 0.00 0.00 0.00 86 1015.1
20260905024548 26 0 0.0 3.2 0.00 0.00 0.00 86 1015.0
20260905024028 26 0 0.0 6.4 0.00 0.00 0.00 85 1015.1
20260905023528 26 0 0.0 6.4 0.00 0.00 0.00 85 1015.0
20260905023055 26 162 1.6 6.4 0.00 0.00 0.00 85 1015.1
20260905022529 26 0 0.0 1.6 0.00 0.00 0.00 85 1015.0
20260905022029 26 0 0.0 1.6 0.00 0.00 0.00 85 1014.9
20260905021548 26 0 0.0 1.6 0.00 0.00 0.00 84 1015.0
20260905021027 27 0 0.0 1.6 0.00 0.00 0.00 84 1015.0
20260905020532 27 0 0.0 11.3 0.00 0.00 0.00 83 1015.1
20260905020057 27 0 0.0 11.3 0.00 0.00 0.00 83 1015.0
20260905015528 27 159 4.8 11.3 0.00 0.00 0.00 83 1015.0
20260905015029 27 144 0.0 3.2 0.00 0.00 0.00 81 1014.8
20260905014548 27 0 0.0 0.0 0.00 0.00 0.00 81 1014.7
20260905014029 27 0 0.0 0.0 0.00 0.00 0.00 81 1014.7
20260905013529 27 0 0.0 0.0 0.00 0.00 0.00 80 1014.7
20260905013048 27 0 0.0 0.0 0.00 0.00 0.00 80 1014.6
20260905012529 28 0 0.0 0.0 0.00 0.00 0.00 80 1014.6
20260905012029 28 0 0.0 0.0 0.00 0.00 0.00 79 1014.7
20260905011600 28 0 0.0 0.0 0.00 0.00 0.00 78 1014.6
20260905011028 28 0 0.0 0.0 0.00 0.00 0.00 77 1014.6
20260905010529 28 0 0.0 0.0 0.00 0.00 0.00 76 1014.6
20260905010105 28 0 0.0 3.2 0.00 0.00 0.00 76 1014.6
20260905005527 29 0 0.0 3.2 0.00 0.00 0.00 76 1014.6
20260905005029 29 144 0.0 3.2 0.00 0.00 0.00 75 1014.5
20260905004550 30 0 0.0 3.2 0.00 0.00 0.00 74 1014.5